TimeEDT,TemperatureF,Dew PointF,Humidity,Sea Level PressureIn,VisibilityMPH,Wind Direction,Wind SpeedMPH,Gust SpeedMPH,PrecipitationIn,Events,Conditions,WindDirDegrees,DateUTC
12:15 AM,64.4,53.6,68,29.92,10.0,NNE,5.8,-,N/A,,Clear,30,2012-10-27 04:15:00
12:35 AM,64.4,53.6,68,29.92,10.0,NNE,5.8,-,N/A,,Clear,20,2012-10-27 04:35:00
12:55 AM,64.4,53.6,68,29.91,10.0,North,5.8,-,N/A,,Clear,10,2012-10-27 04:55:00
1:15 AM,62.6,53.6,72,29.90,10.0,North,3.5,-,N/A,,Clear,10,2012-10-27 05:15:00
1:35 AM,62.6,53.6,72,29.89,10.0,North,6.9,-,N/A,,Clear,10,2012-10-27 05:35:00
1:55 AM,60.8,53.6,77,29.89,10.0,North,5.8,-,N/A,,Clear,10,2012-10-27 05:55:00
2:15 AM,60.8,55.4,82,29.88,10.0,North,6.9,-,N/A,,Clear,10,2012-10-27 06:15:00
2:35 AM,60.8,55.4,82,29.87,10.0,North,6.9,-,N/A,,Clear,360,2012-10-27 06:35:00
2:55 AM,60.8,55.4,82,29.86,10.0,North,6.9,-,N/A,,Clear,350,2012-10-27 06:55:00
3:15 AM,60.8,55.4,82,29.86,10.0,NNW,8.1,-,N/A,,Clear,340,2012-10-27 07:15:00
3:55 AM,60.8,57.2,88,29.84,10.0,North,8.1,-,N/A,,Clear,350,2012-10-27 07:55:00
4:15 AM,60.8,59.0,94,29.84,10.0,North,5.8,-,N/A,,Clear,360,2012-10-27 08:15:00
4:35 AM,60.8,59.0,94,29.83,10.0,North,5.8,-,N/A,,Clear,360,2012-10-27 08:35:00
4:55 AM,60.8,57.2,88,29.83,10.0,North,6.9,-,N/A,,Clear,10,2012-10-27 08:55:00
5:15 AM,59.0,57.2,94,29.83,7.0,NNE,5.8,-,N/A,,Clear,20,2012-10-27 09:15:00
5:35 AM,60.8,57.2,88,29.83,7.0,North,4.6,-,N/A,,Clear,10,2012-10-27 09:35:00
5:55 AM,60.8,59.0,94,29.82,7.0,North,4.6,-,N/A,,Clear,360,2012-10-27 09:55:00
6:15 AM,59.0,57.2,94,29.83,7.0,North,8.1,-,N/A,,Clear,350,2012-10-27 10:15:00
6:35 AM,60.8,59.0,94,29.83,7.0,North,6.9,-,N/A,,Clear,350,2012-10-27 10:35:00
6:55 AM,60.8,59.0,94,29.84,10.0,North,8.1,-,N/A,,Mostly Cloudy,360,2012-10-27 10:55:00
7:15 AM,60.8,57.2,88,29.84,10.0,North,9.2,-,N/A,,Overcast,350,2012-10-27 11:15:00
7:35 AM,60.8,55.4,82,29.84,10.0,North,8.1,-,N/A,,Scattered Clouds,360,2012-10-27 11:35:00
7:55 AM,60.8,55.4,82,29.84,10.0,North,8.1,-,N/A,,Clear,360,2012-10-27 11:55:00
8:15 AM,60.8,55.4,82,29.85,10.0,North,8.1,-,N/A,,Mostly Cloudy,360,2012-10-27 12:15:00
8:35 AM,60.8,55.4,82,29.85,10.0,NNE,6.9,-,N/A,,Scattered Clouds,20,2012-10-27 12:35:00
8:55 AM,60.8,55.4,82,29.85,10.0,NNE,4.6,-,N/A,,Clear,30,2012-10-27 12:55:00
9:15 AM,64.4,57.2,77,29.85,10.0,NNE,5.8,-,N/A,,Clear,20,2012-10-27 13:15:00
9:35 AM,64.4,57.2,77,29.86,10.0,NNE,8.1,-,N/A,,Clear,30,2012-10-27 13:35:00
9:55 AM,64.4,55.4,73,29.85,10.0,NE,5.8,-,N/A,,Clear,50,2012-10-27 13:55:00
10:35 AM,66.2,55.4,68,29.84,10.0,NE,8.1,-,N/A,,Clear,50,2012-10-27 14:35:00
11:15 AM,68.0,55.4,64,29.84,10.0,NE,6.9,16.1,N/A,,Clear,40,2012-10-27 15:15:00
11:55 AM,69.8,55.4,60,29.83,10.0,NNE,8.1,16.1,N/A,,Clear,30,2012-10-27 15:55:00
12:15 PM,71.6,57.2,60,29.81,10.0,North,5.8,-,N/A,,Clear,360,2012-10-27 16:15:00
12:35 PM,71.6,55.4,57,29.81,10.0,NNE,6.9,-,N/A,,Clear,20,2012-10-27 16:35:00
12:55 PM,73.4,57.2,57,29.80,10.0,NNE,9.2,-,N/A,,Clear,20,2012-10-27 16:55:00
1:15 PM,73.4,55.4,53,29.79,10.0,North,11.5,-,N/A,,Scattered Clouds,360,2012-10-27 17:15:00
1:35 PM,73.4,53.6,50,29.78,10.0,NNE,6.9,16.1,N/A,,Scattered Clouds,20,2012-10-27 17:35:00
1:55 PM,73.4,53.6,50,29.78,10.0,NE,8.1,17.3,N/A,,Clear,50,2012-10-27 17:55:00
2:15 PM,73.4,53.6,50,29.76,10.0,North,5.8,-,N/A,,Clear,10,2012-10-27 18:15:00
2:35 PM,75.2,53.6,47,29.76,10.0,North,3.5,-,N/A,,Clear,10,2012-10-27 18:35:00
2:55 PM,73.4,51.8,47,29.75,10.0,NNE,5.8,18.4,N/A,,Clear,20,2012-10-27 18:55:00
3:15 PM,77.0,51.8,41,29.73,10.0,NE,6.9,17.3,N/A,,Clear,50,2012-10-27 19:15:00
3:35 PM,78.8,51.8,39,29.73,10.0,NNE,10.4,-,N/A,,Clear,30,2012-10-27 19:35:00
3:55 PM,78.8,51.8,39,29.73,10.0,NE,10.4,-,N/A,,Clear,40,2012-10-27 19:55:00
4:15 PM,77.0,50.0,39,29.72,10.0,North,9.2,17.3,N/A,,Clear,350,2012-10-27 20:15:00
4:35 PM,77.0,50.0,39,29.72,10.0,NNE,9.2,-,N/A,,Clear,30,2012-10-27 20:35:00
4:55 PM,77.0,50.0,39,29.72,10.0,North,6.9,-,N/A,,Clear,10,2012-10-27 20:55:00
5:15 PM,75.2,50.0,41,29.72,10.0,North,8.1,-,N/A,,Clear,10,2012-10-27 21:15:00
5:35 PM,73.4,50.0,44,29.72,10.0,NNE,9.2,-,N/A,,Clear,30,2012-10-27 21:35:00
5:55 PM,73.4,50.0,44,29.72,10.0,North,6.9,-,N/A,,Clear,360,2012-10-27 21:55:00
6:15 PM,73.4,51.8,47,29.72,10.0,North,4.6,-,N/A,,Clear,350,2012-10-27 22:15:00
6:35 PM,73.4,51.8,47,29.72,10.0,North,4.6,-,N/A,,Clear,350,2012-10-27 22:35:00
6:55 PM,73.4,53.6,50,29.72,10.0,NNW,3.5,-,N/A,,Clear,330,2012-10-27 22:55:00
7:15 PM,69.8,51.8,53,29.72,10.0,NW,3.5,-,N/A,,Clear,320,2012-10-27 23:15:00
7:35 PM,69.8,53.6,56,29.73,10.0,NW,3.5,-,N/A,,Clear,320,2012-10-27 23:35:00
7:55 PM,68.0,53.6,60,29.73,10.0,NNW,3.5,-,N/A,,Clear,340,2012-10-27 23:55:00
8:15 PM,68.0,53.6,60,29.73,10.0,NNW,3.5,-,N/A,,Scattered Clouds,340,2012-10-28 00:15:00
8:35 PM,68.0,53.6,60,29.74,10.0,North,3.5,-,N/A,,Scattered Clouds,350,2012-10-28 00:35:00
8:55 PM,68.0,53.6,60,29.75,10.0,NW,5.8,-,N/A,,Scattered Clouds,310,2012-10-28 00:55:00
9:15 PM,68.0,53.6,60,29.75,10.0,NW,6.9,-,N/A,,Scattered Clouds,310,2012-10-28 01:15:00
9:35 PM,66.2,53.6,64,29.76,10.0,NW,8.1,-,N/A,,Scattered Clouds,310,2012-10-28 01:35:00
9:55 PM,64.4,53.6,68,29.76,10.0,NW,8.1,-,N/A,,Clear,310,2012-10-28 01:55:00
10:15 PM,64.4,51.8,64,29.76,10.0,NW,4.6,-,N/A,,Clear,320,2012-10-28 02:15:00
10:35 PM,64.4,53.6,68,29.76,10.0,NW,4.6,-,N/A,,Clear,320,2012-10-28 02:35:00
10:55 PM,62.6,53.6,72,29.76,10.0,NW,4.6,-,N/A,,Clear,310,2012-10-28 02:55:00
11:15 PM,60.8,51.8,72,29.77,10.0,NW,5.8,-,N/A,,Clear,310,2012-10-28 03:15:00
11:35 PM,60.8,51.8,72,29.77,10.0,NW,6.9,-,N/A,,Clear,310,2012-10-28 03:35:00
11:55 PM,60.8,51.8,72,29.78,10.0,NW,6.9,-,N/A,,Clear,310,2012-10-28 03:55:00